Regional Weather Roundup
Issued by NWS

Home | Current Version | Previous Version | Text Only | Print | Product List | Glossary Off
Versions: 1 2 3 4 5 6 7 8 9 10 11 12 13 14 15 16 17 18 19 20 21 22 23 24 25 26 27 28

000
ASUS45 KGTF 250110
RWRMT
MONTANA HOURLY WEATHER ROUNDUP
NATIONAL WEATHER SERVICE GREAT FALLS MT
700 PM MDT FRI APR 24 2015

NOTE: "FAIR" INDICATES FEW OR NO CLOUDS BELOW 12000 FEET WITH NO
SIGNIFICANT WEATHER AND/OR OBSTRUCTIONS TO VISIBILITY.

MTZ001>007-043-250200-
WEST OF THE DIVIDE

CITY           SKY/WX    TMP DP  RH WIND       PRES   REMARKS
KALISPELL      CLOUDY    51  21  30 W12       29.73S
MISSOULA       CLOUDY    49  23  36 NW17      29.76R
BUTTE          LGT RAIN  36  33  89 NW6       29.73R WCI  31
DEER LODGE       N/A     45  28  53 W5        29.75R
EUREKA           N/A     52  19  28 SW10        N/A
HAMILTON         N/A     48  27  43 W10       29.74R
LIBBY            N/A     52  21  30 SW3       29.76S
$$

MTZ008-052>055-250200-
SOUTHWEST MONTANA

CITY           SKY/WX    TMP DP  RH WIND       PRES   REMARKS
BOZEMAN        CLOUDY    45  38  76 W12       29.66R
DILLON         LGT RAIN  39  35  86 NE12      29.69R WCI  32
$$

MTZ009-010-012-014-046-048-049-054-250200-
EAST SLOPES AND CENTRAL MONTANA

CITY           SKY/WX    TMP DP  RH WIND       PRES   REMARKS
CUT BANK       CLOUDY    50  21  32 W22G30    29.65R
GREAT FALLS    LGT RAIN  45  39  79 S6        29.68R
MALMSTROM AFB  LGT RAIN  47  37  67 S5        29.68R
HELENA         CLOUDY    48  33  56 W18G24    29.67S
$$

MTZ011-013-016-021-045-047-050-051-250200-
NORTH CENTRAL MONTANA

CITY           SKY/WX    TMP DP  RH WIND       PRES   REMARKS
HAVRE          CLOUDY    59  31  34 NW6       29.61R
LEWISTOWN      LGT RAIN  50  40  68 NW9       29.65R
CHINOOK          N/A     61  32  33 CALM      29.61R
FORT BENTON      N/A     54  39  58 SE12      29.65S
$$

MTZ017>020-022>042-056>058-061-062-250200-
EASTERN PLAINS

CITY           SKY/WX    TMP DP  RH WIND       PRES   REMARKS
BAKER          MOCLDY    63  35  35 E8        29.60R
BILLINGS       MOSUNNY   67  36  31 E14       29.52S
GLASGOW        MOSUNNY   64  32  30 N12       29.58R
JORDAN           N/A     65  33  30 N16       29.57R
LIVINGSTON     CLOUDY    55  39  54 W10       29.59R
MILES CITY     LGT RAIN  54  48  80 E13       29.60F
SIDNEY         CLOUDY    66  37  34 CALM      29.59R
WOLF POINT     CLOUDY    65  43  44 SE3       29.57R
BIG TIMBER       N/A     52  45  76 N6        29.59R
FORSYTH          N/A     57  48  72 E10       29.56R
PLENTYWOOD       N/A     63  30  29 E10       29.60S
POPLAR           N/A     64  43  45 CALM      29.58R
$$

REGIONAL REPORTS...DAKOTAS

CITY           SKY/WX    TMP DP  RH WIND       PRES   REMARKS
WILLISTON      CLEAR     65  34  31 E10       29.61R
MINOT          PTCLDY    59  35  40 NE10      29.65R
DICKINSON      PTCLDY    63  32  31 E10       29.60R
BEACH          FAIR      59  32  36 E8        29.61R
CROSBY         MOCLDY    59  32  36 E13       29.64S
WATFORD CITY   FAIR      63  32  31 E12       29.60R
BISMARCK       CLEAR     63  40  42 E12       29.62R
GRAND FORKS    CLOUDY    51  38  60 SE10      29.76R
FARGO          CLOUDY    48  40  73 SE16      29.74R
BUFFALO SD       N/A     65  33  30 E9        29.54R
RAPID CITY     MOCLDY    58  45  62 SE15      29.58R
$$

REGIONAL REPORTS...WYOMING/IDAHO/WASHINGTON

CITY           SKY/WX    TMP DP  RH WIND       PRES   REMARKS
GILLETTE       CLOUDY    58  40  51 E10       29.60R
SHERIDAN       PTSUNNY   58  38  47 E6        29.59R
BUFFALO WY     LGT RAIN  57  38  48 N8        29.63R
CODY           CLOUDY    59  34  38 S8        29.56S
YELLOWSTONE LA   N/A     33  32  96 CALM      29.76R
IDAHO FALLS    CLOUDY    52  38  58 S18G26    29.68S
SALMON         CLOUDY    45  37  76 S10       29.72R
BOISE          PTSUNNY   56  31  38 NW8       29.72F
SPOKANE        CLOUDY    50  28  42 S10       29.77S
$$

REGIONAL REPORTS...ALBERTA

CITY           SKY/WX    TMP DP  RH WIND       PRES   REMARKS
EDMONTON       CLOUDY    39  30  70 E16       29.78R WCI  30
CALGARY        CLOUDY    45  36  70 N10       29.64R
LETHBRIDGE     CLOUDY    52  19  28 W18G32    29.64R
MEDICINE HAT   PTSUNNY   59  27  29 SW12      29.60R
$$

REGIONAL REPORTS...SASKATCHEWAN

CITY           SKY/WX    TMP DP  RH WIND       PRES   REMARKS
SWIFT CURRENT  MOSUNNY   54  36  50 E16G25    29.60R
REGINA         MOCLDY    54  30  40 NE20G26   29.66S
SASKATOON      CLOUDY    45  30  57 NE22G28   29.74R
$$



USA.gov is the U.S. government's official web portal to all federal, state and local government web resources and services.